Weather History for Fallon NAS, NV

Change the Weather History Date:

Thursday, September 5, 2013

  Actual Average Record
Temperature  
Mean Temperature 76 °F -  
Max Temperature 96 °F 84 °F 96 °F (1966)
Min Temperature 57 °F 48 °F 36 °F (2000)
Cooling Degree Days 12    
Growing Degree Days 26 (Base 50)    
Moisture  
Dew Point 40 °F    
Average Humidity 33    
Maximum Humidity 72    
Minimum Humidity 10    
Precipitation  
Precipitation 0.00 in - - ()
Sea Level Pressure  
Sea Level Pressure 29.92 in    
Wind  
Wind Speed 8 mph (West)    
Max Wind Speed 26 mph    
Max Gust Speed 37 mph    
Visibility 7 miles    
Events      
Averages and records for this station are not official NWS values.
T = Trace of Precipitation, MM = Missing Value Source: NWS Daily Summary

Daily Weather History Graph

Daily Weather History Graph

Search for Another Location

Airport:

Trip Planner

Search our weather history database for the weather conditions in past years. The results will help you decide how hot, cold, wet, or windy it might be!

Date:

Astronomy

Sep. 05, 2013 Rise Set
Actual Time 6:27 AM PDT 7:18 PM PDT
Civil Twilight 5:59 AM PDT 7:46 PM PDT
Nautical Twilight 5:27 AM PDT 8:18 PM PDT
Astronomical Twilight 4:53 AM PDT 8:51 PM PDT
Moon 6:43 AM PDT (9/5) 7:13 PM PDT (9/5)
Length of Visible Light 13h 46m
Length of Day
12h 51m
New Moon, 0% of the Moon is Illuminated
Sep 5
New Moon
Sep 12
First Quarter
Sep 19
Full
Sep 26
Last Quarter
Oct 4
New

Hourly Weather History & Observations

Time (PDT) Temp. Dew Point Humidity Pressure Visibility Wind Dir Wind Speed Gust Speed Precip Events Conditions
12:56 AM 68.0 °F 50.0 °F 52% 29.94 in 10.0 mi NE 5.8 mph - N/A   Mostly Cloudy
1:56 AM 66.9 °F 50.0 °F 54% 29.93 in 10.0 mi NNE 5.8 mph - N/A   Partly Cloudy
2:56 AM 64.9 °F 50.0 °F 58% 29.94 in 10.0 mi SSW 4.6 mph - N/A   Partly Cloudy
3:56 AM 60.1 °F 48.9 °F 67% 29.93 in 10.0 mi Calm Calm - N/A   Partly Cloudy
4:56 AM 57.9 °F 48.9 °F 72% 29.92 in 10.0 mi Calm Calm - N/A   Scattered Clouds
5:56 AM 60.1 °F 50.0 °F 69% 29.93 in 10.0 mi Calm Calm - N/A   Partly Cloudy
6:22 AM 57.2 °F 48.2 °F 72% 30.02 in 10.0 mi Calm Calm - N/A   Mostly Cloudy
6:56 AM 57.2 °F 48.2 °F 72% 29.94 in 9.0 mi Calm Calm - N/A   Mostly Cloudy
7:56 AM 66.0 °F 50.0 °F 56% 29.95 in 10.0 mi Calm Calm - N/A   Scattered Clouds
8:56 AM 75.0 °F 50.0 °F 41% 29.95 in 7.0 mi Calm Calm - N/A   Partly Cloudy
9:56 AM 79.0 °F 48.9 °F 35% 29.94 in 8.0 mi ENE 4.6 mph - N/A   Scattered Clouds
10:56 AM 82.9 °F 46.9 °F 28% 29.93 in 10.0 mi Variable 4.6 mph - N/A   Scattered Clouds
11:56 AM 87.1 °F 44.1 °F 22% 29.91 in 10.0 mi SSW 6.9 mph - N/A   Scattered Clouds
12:56 PM 89.1 °F 45.0 °F 22% 29.89 in 10.0 mi Variable 5.8 mph - N/A   Scattered Clouds
1:56 PM 95.0 °F 37.0 °F 13% 29.86 in 10.0 mi SW 15.0 mph 25.3 mph N/A   Scattered Clouds
2:56 PM 96.1 °F 30.0 °F 10% 29.84 in 10.0 mi WSW 24.2 mph 33.4 mph N/A   Scattered Clouds
3:56 PM 93.9 °F 28.0 °F 10% 29.84 in 9.0 mi WSW 26.5 mph 36.8 mph N/A   Partly Cloudy
4:56 PM 91.4 °F 30.2 °F 11% 29.84 in 3.0 mi WSW 21.9 mph 32.2 mph N/A   Smoke
5:02 PM 91.4 °F 30.2 °F 11% 29.91 in 2.5 mi WSW 25.3 mph 33.4 mph N/A   Smoke
5:56 PM 87.8 °F 30.2 °F 13% 29.84 in 2.0 mi WSW 21.9 mph 31.1 mph N/A   Smoke
6:10 PM 87.8 °F 30.2 °F 13% 29.92 in 1.5 mi WSW 23.0 mph 33.4 mph N/A   Smoke
6:28 PM 86.0 °F 30.2 °F 13% 29.92 in 1.0 mi WSW 18.4 mph 31.1 mph N/A   Smoke
6:56 PM 84.2 °F 30.2 °F 14% 29.85 in 1.0 mi WSW 19.6 mph - N/A   Smoke
7:56 PM 80.6 °F 33.8 °F 18% 29.87 in 1.0 mi West 15.0 mph - N/A   Smoke
8:27 PM 78.8 °F 33.8 °F 20% 29.97 in 3.0 mi West 17.3 mph - N/A   Smoke
8:56 PM 78.8 °F 33.8 °F 20% 29.90 in 5.0 mi WNW 16.1 mph - N/A   Smoke
9:10 PM 75.2 °F 35.6 °F 24% 29.98 in 6.0 mi West 16.1 mph - N/A   Smoke
9:56 PM 73.9 °F 36.0 °F 25% 29.91 in 10.0 mi WNW 15.0 mph 25.3 mph N/A   Clear
10:56 PM 75.0 °F 36.0 °F 24% 29.94 in 10.0 mi Calm Calm - N/A   Clear
11:56 PM 68.0 °F 37.0 °F 32% 29.96 in 9.0 mi NNE 9.2 mph - N/A   Clear